Skip Page Navigation
NASA JPL Caltech
NASA Logo - Jet Propulsion Laboratory + View the NASA Portal
+ Center for Near-Earth Object Studies
JPL Home Earth Solar System Stars & Galaxies Technology
JPL Solar System Dynamics
BODIES ORBITS EPHEMERIDES TOOLS PHYSICAL DATA DISCOVERY FAQ SITE MAP
JPL Small-Body Database Browser
Search: [ help ]  
(2013 TB80)
Classification: Amor [NEO]          SPK-ID: 3650362
Ephemeris | Orbit Diagram | Orbital Elements | Mission Design | Physical Parameters | Close-Approach Data ]

[ hide orbit diagram ]

For accurate long-term ephemerides, please instead use our Horizons system.This orbit viewer was implemented using two-body methods, and hence should not be used for determining accurate long-term trajectories (over several years or decades) or planetary encounter circumstances.


Orbital Elements at Epoch 2459000.5 (2020-May-31.0) TDB
Reference: JPL 95 (heliocentric ecliptic J2000)
 Element Value Uncertainty (1-sigma)   Units 
e .544418732026332 1.7139e-07  
a 2.820951604727576 2.0721e-07 au
q 1.285172708974143 3.9584e-07 au
i 12.71143904214174 1.2546e-05 deg
node 59.01608077633803 2.8423e-05 deg
peri 17.7675528893894 4.7543e-05 deg
M 128.2624481632992 6.2179e-05 deg
tp 2458383.920750738473
(2018-Sep-22.42075074)
0.00023163 TDB
period 1730.580796739098
4.74
0.00019068
5.221e-07
d
yr
n .20802264804876 2.292e-08 deg/d
Q 4.356730500481009 3.2002e-07 au
  Orbit Determination Parameters
   # obs. used (total)      613  
   data-arc span      6548 days (17.93 yr)  
   first obs. used      2001-05-23  
   last obs. used      2019-04-27  
   planetary ephem.      DE431  
   SB-pert. ephem.      SB431-N16  
   condition code      0  
   norm. resid. RMS      .37159  
   source      ORB  
   producer      Otto Matic  
   solution date      2019-May-02 07:04:33  

Additional Information
 Earth MOID = .306444 au 
 Jupiter MOID = 1.02099 au 
 T_jup = 3.050 
[ show covariance matrix ]

Ephemeris | Orbit Diagram | Orbital Elements | Mission Design | Physical Parameters | Close-Approach Data ]

Physical Parameter Table
Parameter Symbol Value Units Sigma Reference Notes
absolute magnitude H 17.5   n/a MPO473290  
rotation period rot_per 2.632 h n/a LCDB (Rev. 2020-October); Warner et al., 2009 Result based on less than full coverage, so that the period may be wrong by 30 percent or so.
Published Reference List:
[Warner, B.D. (2014) Minor Planet Bull. 41, 113-124.]

[ hide close-approach data ]
Close-Approach Data   ...sorted by Date/Time (TDB)
Date/Time (TDB) Time Uncertainty
(days_HH:MM)
Body Nominal Distance (au) Minimum Distance (au) Maximum Distance (au) V-relative (km/s) V-infinity (km/s) JD (TDB) Time Uncertainty (minutes) Semi-major axis (km) Semi-minor axis (km) range-LOV angle (deg) N-sigma BP Orbit Ref. Reference Modified
1901-Jan-17 16:14 00:02 Jupiter 1.79647401845053 1.79646498914241 1.79648304775835 6.97998989683992 6.91211079493315 2415402.176318288 1.87373917870068 448.814050330671 108.295876679206 -2.60631207518593 522351.062584594 T 95 CATAB v2.0e-lin.ifort 2019-May-02 07:04:38 2019-May-02 07:21
1922-Dec-14 10:08 00:03 Earth 0.477600593409513 0.477573574641475 0.477627613482331 7.35680458059519 7.35604621143442 2423402.922486544 2.90732222019645 1840.98815834925 166.96523644228 -43.1768826023377 444502.609140262 T 95 CATAB v2.0e-lin.ifort 2019-May-02 07:04:38 2019-May-02 07:21
1946-Dec-10 14:13 00:04 Earth 0.421434732886522 0.421404169085891 0.421465301596175 7.19289527290503 7.19201624060768 2432165.092191976 3.51099545931458 2734.91195210649 71.9816297942629 -56.1594216574411 753093.694527796 T 95 CATAB v2.0e-lin.ifort 2019-May-02 07:04:38 2019-May-02 07:21
1970-Dec-02 10:24 00:03 Earth 0.349962613202481 0.349958893864914 0.349966344365763 7.02171152541432 7.02062714601466 2440922.933361657 2.61337580532418 3240.88148059746 24.101377759781 86.7414158855995 1437016.04204306 T 95 CATAB v2.0e-lin.ifort 2019-May-02 07:04:38 2019-May-02 07:21
1994-Dec-07 20:58 00:02 Earth 0.377641292645275 0.37762696498817 0.377655622159376 7.37054765722314 7.36959032797449 2449694.373801351 1.59060337330778 1502.8114925007 33.6224687558247 -61.6395893441796 1000428.87616471 T 95 CATAB v2.0e-lin.ifort 2019-May-02 07:04:38 2019-May-02 07:21
2007-Jan-27 10:13 00:03 Jupiter 1.79772597083081 1.79771344060714 1.79773850104876 5.48264720108396 5.39602573335051 2454127.925869737 2.77249907121593 603.857420050893 70.5002003669424 -9.41658823163674 272355.493515433 T 95 CATAB v2.0e-lin.ifort 2019-May-02 07:04:38 2019-May-02 07:21
2013-Nov-23 10:14 < 00:01 Earth 0.440620175190189 0.440619190149634 0.440621160262177 7.3132665061131 7.31243959061504 2456619.926473720 0.253170249949228 269.542399941321 35.0677527828958 82.6054000031125 1515197.13521597 T 95 CATAB v2.0e-lin.ifort 2019-May-02 07:04:38 2019-May-02 07:21
2030-Oct-26 02:12 00:05 Jupiter 1.8109821416975 1.8109767679107 1.8109875154847 5.64219756491777 5.55868369869852 2462800.591993322 5.25202856808423 271.844564492989 72.6128973215849 -9.95758230592463 787084.631417986 T 95 CATAB v2.0e-lin.ifort 2019-May-02 07:04:38 2019-May-02 07:21
2032-Nov-30 13:50 < 00:01 Earth 0.297283413383117 0.297270917345177 0.29729591185814 7.36242598406048 7.36120851861017 2463567.076131809 0.793556387287821 1480.51735181352 19.1675659635497 65.1171929004206 6315140.0059053 T 95 CATAB v2.0e-lin.ifort 2019-May-02 07:04:38 2019-May-02 07:21
2079-Dec-03 16:45 00:01 Earth 0.338466822764984 0.33839446852774 0.33853918713377 8.9563370352726 8.9554580387927 2480736.197760798 1.03999123640612 4642.11090088038 50.9323933526559 -38.9958014906829 550068.492951636 T 95 CATAB v2.0e-lin.ifort 2019-May-02 07:04:38 2019-May-02 07:21
2093-Dec-03 05:32 00:02 Earth 0.282073352016017 0.282042603131708 0.282104121537143 7.73730479170855 7.73608385019892 2485849.730872563 1.51875708978479 4104.61563554458 54.2083789636989 -68.072977540516 627562.826373206 T 95 CATAB v2.0e-lin.ifort 2019-May-02 07:04:38 2019-May-02 07:21
2107-Nov-26 00:15 00:07 Earth 0.463724895214513 0.463638620157358 0.463811319779742 7.8891383018145 7.88840994795866 2490954.510093246 6.76125504109419 13860.8789764449 353.305786863999 -71.9584667377999 174601.251506934 T 95 CATAB v2.0e-lin.ifort 2019-May-02 07:04:38 2019-May-02 07:21
2138-Apr-13 23:36 00:03 Jupiter 1.75060408197877 1.75059319461729 1.75061496933678 6.96276088784511 6.89292009863457 2502051.483155366 2.91744131867838 528.583882359834 71.2593611812579 -4.83669137427493 218478.682798231 T 95 CATAB v2.0e-lin.ifort 2019-May-02 07:04:38 2019-May-02 07:21
2140-Nov-22 01:57 00:04 Earth 0.474207816671468 0.474161717689487 0.474254026089599 6.8873510626426 6.88653519980515 2503004.581276079 4.35899230810227 11648.4464297749 78.2426603041894 78.6106091112492 978279.362701416 T 95 CATAB v2.0e-lin.ifort 2019-May-02 07:04:38 2019-May-02 07:21
2162-Jan-16 04:16 00:01 Jupiter 1.86534123709141 1.86533608466799 1.86534638951494 7.28125797798993 7.21862513025631 2510729.677800540 1.48957040361591 257.875293139238 85.4379847259356 -4.89590604048273 962284.337844436 T 95 CATAB v2.0e-lin.ifort 2019-May-02 07:04:38 2019-May-02 07:21
2169-Jun-28 02:22 00:04 Mars 0.0932967915915408 0.0932879874056908 0.0933055985758089 10.4994575481066 10.4991652818611 2513449.598410441 4.03679565873273 926.114246423459 67.3596964985573 -61.9808368448513 177544.02445867 T 95 CATAB v2.0e-lin.ifort 2019-May-02 07:04:38 2019-May-02 07:21
2183-Dec-02 23:20 < 00:01 Earth 0.337735732941569 0.337728960348634 0.337742507152516 6.73353576849182 6.73236403198313 2518720.472149529 0.938756125553274 1238.39069588416 69.712644496073 74.4960335459559 758704.209360073 T 95 CATAB v2.0e-lin.ifort 2019-May-02 07:04:38 2019-May-02 07:21
Ephemeris | Orbit Diagram | Orbital Elements | Mission Design | Physical Parameters | Close-Approach Data ]
ABOUT SSD CREDITS/AWARDS PRIVACY/COPYRIGHT GLOSSARY LINKS
FirstGov 2021-Jan-18 12:07 UT
(server date/time)  
NASA Home Page
Site Manager:   Ryan S. Park
Webmaster  Alan B. Chamberlin